FW9784 Weather Reports


Display with metric or nautical units.
time (UTC)temp
F
wind
direction
speed
MPH
gust
MPH
rain 1hr
in
rain 24hr
in
rain mn
in
humidity
%
barometer
mb
20260831143157 68 0 0.0 0.0 0.00 0.00 0.00 92 1013.2
20260831142658 68 0 0.0 0.0 0.00 0.00 0.00 92 1013.1
20260831142202 67 0 0.0 0.0 0.00 0.00 0.00 92 1013.0
20260831141655 67 0 0.0 0.0 0.00 0.00 0.00 93 1013.0
20260831141201 67 0 0.0 0.0 0.00 0.00 0.00 93 1012.9
20260831141047 67 0 0.0 0.0 0.00 0.00 0.00 92 1012.7
20260831140153 67 0 0.0 0.0 0.00 0.00 0.00 92 1012.7
20260831135659 67 0 0.0 0.0 0.00 0.00 0.00 92 1012.6
20260831135158 67 0 0.0 0.0 0.00 0.00 0.00 92 1012.6
20260831134656 67 0 0.0 0.0 0.00 0.00 0.00 92 1012.5
20260831134156 67 0 0.0 0.0 0.00 0.00 0.00 92 1012.5
20260831133657 67 0 0.0 0.0 0.00 0.00 0.00 92 1012.4
20260831133159 67 0 0.0 0.0 0.00 0.00 0.00 91 1012.4
20260831132653 67 0 0.0 0.0 0.00 0.00 0.00 91 1012.2
20260831132156 67 0 0.0 0.0 0.00 0.00 0.00 91 1012.2
20260831131656 67 0 0.0 0.0 0.00 0.00 0.00 91 1012.2
20260831131151 67 0 0.0 0.0 0.00 0.00 0.00 91 1012.2
20260831130652 67 0 0.0 0.0 0.00 0.00 0.00 91 1012.1
20260831130150 67 0 0.0 0.0 0.00 0.00 0.00 91 1012.1
20260831125651 67 0 0.0 0.0 0.00 0.00 0.00 91 1012.2
20260831125149 67 0 0.0 0.0 0.00 0.00 0.00 91 1012.1
20260831124644 67 0 0.0 0.0 0.00 0.00 0.00 91 1012.2
20260831124548 67 0 0.0 0.0 0.00 0.00 0.00 91 1012.1
20260831123644 67 0 0.0 0.0 0.00 0.00 0.00 91 1012.0
20260831123638 67 0 0.0 0.0 0.00 0.00 0.00 91 1012.1
20260831123023 67 0 0.0 0.0 0.00 0.00 0.00 91 1012.1
20260831122138 67 0 0.0 0.0 0.00 0.00 0.00 91 1012.0
20260831121638 67 0 0.0 0.0 0.00 0.00 0.00 91 1012.1
20260831121132 67 0 0.0 0.0 0.00 0.00 0.00 90 1012.1
20260831120634 67 0 0.0 0.0 0.00 0.00 0.00 90 1012.1
20260831120444 68 0 0.0 0.0 0.00 0.00 0.00 90 1012.1
20260831115628 68 0 0.0 0.0 0.00 0.00 0.00 90 1012.1
20260831115128 68 0 0.0 0.0 0.00 0.00 0.00 90 1012.1
20260831114628 68 0 0.0 0.0 0.00 0.00 0.00 90 1012.0
20260831114129 68 0 0.0 0.0 0.00 0.00 0.00 89 1012.1
20260831113631 68 0 0.0 0.0 0.00 0.00 0.00 90 1012.0
20260831113127 68 0 0.0 0.0 0.00 0.00 0.00 90 1012.1
20260831112617 68 0 0.0 0.0 0.00 0.00 0.00 89 1012.1
20260831112117 69 0 0.0 0.0 0.00 0.00 0.00 89 1012.2
20260831111620 69 0 0.0 0.0 0.00 0.00 0.00 89 1012.2
20260831111439 69 0 0.0 0.0 0.00 0.00 0.00 89 1012.1
20260831110946 69 0 0.0 0.0 0.00 0.00 0.00 89 1012.2
20260831110431 69 0 0.0 1.0 0.00 0.00 0.00 89 1012.2
20260831105613 69 0 0.0 1.0 0.00 0.00 0.00 89 1012.1
20260831105114 69 0 0.0 1.0 0.00 0.00 0.00 88 1012.1
20260831104933 69 0 0.0 0.0 0.00 0.00 0.00 88 1012.2
20260831104111 69 0 0.0 0.0 0.00 0.00 0.00 88 1012.2
20260831103623 69 0 0.0 1.0 0.00 0.00 0.00 88 1012.2
20260831103112 69 0 0.0 1.0 0.00 0.00 0.00 87 1012.3
20260831102611 69 0 0.0 1.0 0.00 0.00 0.00 87 1012.3
20260831102111 69 0 0.0 1.0 0.00 0.00 0.00 87 1012.3
20260831101907 70 0 1.0 2.0 0.00 0.00 0.00 87 1012.2
20260831101739 70 0 1.0 2.0 0.00 0.00 0.00 87 1012.3
20260831100619 70 0 1.0 2.0 0.00 0.00 0.00 87 1012.2
20260831100103 70 0 0.0 3.0 0.00 0.00 0.00 87 1012.2
20260831095617 70 0 0.0 3.0 0.00 0.00 0.00 87 1012.3
20260831095104 70 0 0.0 3.0 0.00 0.00 0.00 87 1012.2
20260831094609 70 0 1.0 3.0 0.00 0.00 0.00 87 1012.2
20260831094104 70 0 0.0 3.0 0.00 0.00 0.00 86 1012.2
20260831094051 70 0 1.0 3.0 0.00 0.00 0.00 85 1012.1
20260831094046 70 0 1.0 3.0 0.00 0.00 0.00 86 1012.2
20260831092600 70 0 0.0 3.0 0.00 0.00 0.00 85 1012.2
20260831092100 71 0 0.0 2.0 0.00 0.00 0.00 84 1012.2
20260831091600 71 0 1.0 2.0 0.00 0.00 0.00 84 1012.3
20260831091106 71 0 1.0 4.0 0.00 0.00 0.00 84 1012.2
20260831090609 71 0 1.0 4.0 0.00 0.00 0.00 84 1012.3
20260831090109 71 227 2.0 5.0 0.00 0.00 0.00 84 1012.2
20260831085933 71 214 2.0 4.0 0.00 0.00 0.00 84 1012.2
20260831085055 71 203 1.0 4.0 0.00 0.00 0.00 83 1012.3
20260831084554 71 223 1.0 5.0 0.00 0.00 0.00 83 1012.3
20260831084437 71 194 2.0 5.0 0.00 0.00 0.00 83 1012.3
20260831083558 71 153 2.0 5.0 0.00 0.00 0.00 82 1012.3
20260831083418 71 208 1.0 4.0 0.00 0.00 0.00 81 1012.2
20260831082548 71 218 2.0 6.0 0.00 0.00 0.00 81 1012.2
20260831082046 71 215 3.0 7.0 0.00 0.00 0.00 80 1012.3
20260831081546 71 156 2.0 7.0 0.00 0.00 0.00 81 1012.2
20260831081038 71 161 1.0 5.0 0.00 0.00 0.00 81 1012.2
20260831080546 71 174 1.0 5.0 0.00 0.00 0.00 81 1012.3
20260831080036 71 181 1.0 4.0 0.00 0.00 0.00 81 1012.3
20260831075550 71 211 1.0 4.0 0.00 0.00 0.00 81 1012.2
20260831075043 71 193 1.0 4.0 0.00 0.00 0.00 81 1012.2
20260831074548 71 167 2.0 4.0 0.00 0.00 0.00 81 1012.1
20260831074042 71 163 2.0 4.0 0.00 0.00 0.00 79 1012.2
20260831073539 71 102 1.0 5.0 0.00 0.00 0.00 79 1012.1
20260831073049 71 150 1.0 5.0 0.00 0.00 0.00 78 1012.0
20260831072537 71 117 1.0 4.0 0.00 0.00 0.00 78 1012.0
20260831072031 71 111 1.0 4.0 0.00 0.00 0.00 79 1012.1
20260831071536 71 113 1.0 4.0 0.00 0.00 0.00 79 1012.0
20260831071414 71 86 1.0 3.0 0.00 0.00 0.00 79 1012.0
20260831070530 71 160 1.0 4.0 0.00 0.00 0.00 79 1012.0
20260831070032 71 184 2.0 4.0 0.00 0.00 0.00 79 1011.9
20260831065532 71 184 1.0 4.0 0.00 0.00 0.00 78 1011.8
20260831065332 71 194 1.0 2.0 0.00 0.00 0.00 79 1011.9
20260831064911 71 169 1.0 4.0 0.00 0.00 0.00 79 1012.0
20260831064030 71 169 1.0 6.0 0.00 0.00 0.00 79 1012.0
20260831063530 71 136 1.0 6.0 0.00 0.00 0.00 78 1012.1
20260831063029 71 199 0.0 2.0 0.00 0.00 0.00 79 1012.1
20260831062530 71 199 1.0 3.0 0.00 0.00 0.00 79 1012.0
20260831062029 71 199 0.0 3.0 0.00 0.00 0.00 80 1012.0
20260831061532 72 275 1.0 2.0 0.00 0.00 0.00 82 1012.0
20260831061026 72 275 1.0 5.0 0.00 0.00 0.00 83 1011.9
20260831060530 72 197 2.0 5.0 0.00 0.00 0.00 83 1012.0
20260831060358 72 0 1.0 4.0 0.00 0.00 0.00 82 1012.0
20260831055524 72 0 1.0 4.0 0.00 0.00 0.00 80 1011.9
20260831055025 72 214 0.0 4.0 0.00 0.00 0.00 79 1012.0
20260831054525 72 214 1.0 4.0 0.00 0.00 0.00 78 1012.0
20260831054028 72 210 1.0 4.0 0.00 0.00 0.00 78 1012.1
20260831053527 72 227 2.0 4.0 0.00 0.00 0.00 78 1012.0
20260831053411 72 232 2.0 7.0 0.00 0.00 0.00 78 1012.0
20260831052522 72 234 3.0 7.0 0.00 0.00 0.00 79 1011.9
20260831052016 72 207 3.0 9.0 0.00 0.00 0.00 80 1011.9
20260831051545 72 269 3.0 8.0 0.00 0.00 0.00 83 1011.9
20260831051535 72 246 3.0 9.0 0.00 0.00 0.00 82 1011.9
20260831051528 72 0 4.0 9.0 0.00 0.00 0.00 81 1011.8
20260831050016 72 218 3.0 10.0 0.00 0.00 0.00 82 1011.9
20260831045543 72 0 3.0 10.0 0.00 0.00 0.00 80 1012.0
20260831045025 72 257 2.0 7.0 0.00 0.00 0.00 79 1012.0
20260831044537 72 0 3.0 9.0 0.00 0.00 0.00 78 1011.9
20260831044012 72 262 4.0 10.0 0.00 0.00 0.00 77 1011.9
20260831043513 72 0 4.0 10.0 0.00 0.00 0.00 78 1011.9
20260831043012 72 214 3.0 8.0 0.00 0.00 0.00 78 1011.9
20260831042805 72 225 2.0 5.0 0.00 0.00 0.00 79 1011.9
20260831042014 72 254 2.0 7.0 0.00 0.00 0.00 79 1012.0
20260831041939 72 259 2.0 5.0 0.00 0.00 0.00 79 1011.8
20260831041801 72 259 2.0 7.0 0.00 0.00 0.00 79 1011.8
20260831040512 72 215 2.0 6.0 0.00 0.00 0.00 78 1011.8
20260831040012 72 218 2.0 7.0 0.00 0.00 0.00 78 1011.7
20260831035512 72 264 2.0 7.0 0.00 0.00 0.00 78 1011.7
20260831035016 72 0 2.0 7.0 0.00 0.00 0.00 78 1011.6
20260831034508 72 0 2.0 5.0 0.00 0.00 0.00 79 1011.5
20260831034329 72 257 2.0 8.0 0.00 0.00 0.00 80 1011.3
20260831033509 72 261 2.0 8.0 0.00 0.00 0.00 80 1011.2
20260831033008 72 252 2.0 6.0 0.00 0.00 0.00 80 1011.2
20260831032509 72 259 2.0 5.0 0.00 0.00 0.00 80 1011.1
20260831032058 72 235 2.0 7.0 0.00 0.00 0.00 78 1011.1
20260831032019 72 223 2.0 4.0 0.00 0.00 0.00 79 1011.1
20260831031008 72 0 2.0 7.0 0.00 0.00 0.00 78 1010.9
20260831030508 72 256 2.0 4.0 0.00 0.00 0.00 78 1011.1
20260831030012 72 0 2.0 6.0 0.00 0.00 0.00 79 1011.0
20260831025510 72 225 2.0 7.0 0.00 0.00 0.00 79 1010.9
20260831025008 73 249 2.0 7.0 0.00 0.00 0.00 80 1010.9
20260831024555 73 0 2.0 6.0 0.00 0.00 0.00 80 1010.9
20260831024533 73 0 2.0 5.0 0.00 0.00 0.00 80 1010.8
20260831023506 73 0 2.0 6.0 0.00 0.00 0.00 80 1010.8
20260831023006 73 198 3.0 7.0 0.00 0.00 0.00 80 1010.8
20260831022508 73 198 3.0 7.0 0.00 0.00 0.00 80 1010.8
20260831022011 73 218 3.0 7.0 0.00 0.00 0.00 80 1010.7
20260831021507 74 194 3.0 8.0 0.00 0.00 0.00 80 1010.6
20260831021018 74 0 3.0 8.0 0.00 0.00 0.00 79 1010.4
20260831020504 74 0 3.0 7.0 0.00 0.00 0.00 78 1010.5
20260831020010 74 0 3.0 8.0 0.00 0.00 0.00 78 1010.4
20260831015507 74 199 3.0 8.0 0.00 0.00 0.00 78 1010.5
20260831015007 74 0 3.0 8.0 0.00 0.00 0.00 78 1010.5
20260831014503 74 0 3.0 8.0 0.00 0.00 0.00 78 1010.5
20260831014018 74 0 3.0 6.0 0.00 0.00 0.00 78 1010.6
20260831013503 74 0 3.0 9.0 0.00 0.00 0.00 79 1010.6
20260831013010 74 0 3.0 9.0 0.00 0.00 0.00 79 1010.6
20260831012503 75 292 3.0 9.0 0.00 0.00 0.00 80 1010.6
20260831012111 75 263 4.0 9.0 0.00 0.00 0.00 79 1010.7
20260831012036 75 227 3.0 8.0 0.00 0.00 0.00 81 1010.6
20260831011657 75 221 3.0 9.0 0.00 0.00 0.00 81 1010.8
20260831010505 75 0 4.0 8.0 0.00 0.00 0.00 79 1010.7
20260831010005 76 0 4.0 8.0 0.00 0.00 0.00 79 1010.7
20260831005503 76 259 4.0 10.0 0.00 0.00 0.00 80 1010.8
20260831005009 76 213 4.0 10.0 0.00 0.00 0.00 79 1010.7
20260831004915 76 257 4.0 10.0 0.00 0.00 0.00 79 1010.6
20260831004020 77 272 4.0 11.0 0.00 0.00 0.00 78 1010.6
20260831003642 77 206 4.0 10.0 0.00 0.00 0.00 79 1010.6
20260831003604 77 230 4.0 11.0 0.00 0.00 0.00 78 1010.5
20260831002454 78 213 4.0 10.0 0.00 0.00 0.00 78 1010.7
20260831002006 78 263 4.0 10.0 0.00 0.00 0.00 79 1010.6
20260831001500 78 0 5.0 14.0 0.00 0.00 0.00 80 1010.6
20260831001054 78 269 4.0 13.0 0.00 0.00 0.00 78 1010.6
20260831001028 78 285 4.0 14.0 0.00 0.00 0.00 80 1010.5
20260830235954 78 263 5.0 13.0 0.00 0.00 0.00 78 1010.6
20260830235450 79 249 5.0 10.0 0.00 0.00 0.00 77 1010.5
20260830235211 80 301 5.0 10.0 0.00 0.00 0.00 76 1010.6
20260830234953 80 301 5.0 10.0 0.00 0.00 0.00 76 1010.6
20260830234449 80 219 4.0 9.0 0.00 0.00 0.00 76 1010.6
20260830234343 80 216 4.0 12.0 0.00 0.00 0.00 76 1010.6
20260830233449 80 232 5.0 12.0 0.00 0.00 0.00 76 1010.6
20260830232952 80 211 5.0 10.0 0.00 0.00 0.00 76 1010.6
20260830232450 80 287 4.0 9.0 0.00 0.00 0.00 76 1010.7
20260830232347 81 209 4.0 10.0 0.00 0.00 0.00 76 1010.7
20260830231833 81 0 4.0 10.0 0.00 0.00 0.00 76 1010.7
20260830231359 81 234 4.0 9.0 0.00 0.00 0.00 76 1010.7
20260830230448 81 253 4.0 11.0 0.00 0.00 0.00 76 1010.7
20260830230318 81 225 4.0 11.0 0.00 0.00 0.00 76 1010.7
20260830225447 82 192 4.0 9.0 0.00 0.00 0.00 75 1010.8
20260830225205 82 0 4.0 9.0 0.00 0.00 0.00 75 1010.9
20260830224949 82 0 4.0 9.0 0.00 0.00 0.00 75 1010.9
20260830224441 82 289 4.0 9.0 0.00 0.00 0.00 76 1010.9
20260830223957 81 0 4.0 10.0 0.00 0.00 0.00 76 1011.0
20260830223442 81 0 5.0 10.0 0.00 0.00 0.00 76 1011.0
20260830222945 81 275 4.0 10.0 0.00 0.00 0.00 75 1011.1
20260830222441 82 207 5.0 11.0 0.00 0.00 0.00 75 1011.2
20260830221942 82 266 4.0 11.0 0.00 0.00 0.00 75 1011.3
20260830221442 82 248 4.0 10.0 0.00 0.00 0.00 75 1011.3
20260830220949 82 0 4.0 10.0 0.00 0.00 0.00 75 1011.4
20260830220445 82 275 4.0 10.0 0.00 0.00 0.00 75 1011.4
20260830220259 82 273 4.0 11.0 0.00 0.00 0.00 74 1011.5
20260830215442 82 229 5.0 11.0 0.00 0.00 0.00 75 1011.6
20260830215254 82 0 5.0 10.0 0.00 0.00 0.00 74 1011.8
20260830215115 82 302 5.0 10.0 0.00 0.00 0.00 75 1011.6
20260830213932 82 186 5.0 10.0 0.00 0.00 0.00 75 1011.8
20260830213429 82 0 5.0 10.0 0.00 0.00 0.00 75 1011.9
20260830212930 82 0 5.0 11.0 0.00 0.00 0.00 76 1011.9
20260830212429 82 0 5.0 11.0 0.00 0.00 0.00 76 1012.0
20260830211935 82 0 5.0 11.0 0.00 0.00 0.00 75 1012.1
20260830211429 82 219 4.0 11.0 0.00 0.00 0.00 75 1012.1
20260830210932 82 0 4.0 14.0 0.00 0.00 0.00 74 1012.2
20260830210825 82 252 5.0 14.0 0.00 0.00 0.00 75 1012.1
20260830205929 82 217 4.0 11.0 0.00 0.00 0.00 74 1012.2
20260830205433 82 0 5.0 10.0 0.00 0.00 0.00 74 1012.2
20260830204929 82 0 5.0 11.0 0.00 0.00 0.00 75 1012.2
20260830204429 82 209 5.0 11.0 0.00 0.00 0.00 74 1012.2
20260830203933 82 222 5.0 11.0 0.00 0.00 0.00 74 1012.2
20260830203428 82 334 4.0 11.0 0.00 0.00 0.00 75 1012.3
20260830202927 82 225 4.0 8.0 0.00 0.00 0.00 75 1012.2
20260830202425 82 225 4.0 10.0 0.00 0.00 0.00 75 1012.3
20260830201928 82 0 5.0 13.0 0.00 0.00 0.00 75 1012.3
20260830201424 81 202 5.0 13.0 0.00 0.00 0.00 75 1012.3
20260830200942 82 258 5.0 13.0 0.00 0.00 0.00 74 1012.3
20260830200423 82 209 6.0 13.0 0.00 0.00 0.00 75 1012.3
20260830195923 82 258 5.0 11.0 0.00 0.00 0.00 75 1012.4
20260830195428 82 186 5.0 11.0 0.00 0.00 0.00 73 1012.3
20260830194920 82 254 4.0 11.0 0.00 0.00 0.00 74 1012.3
20260830194425 82 223 4.0 12.0 0.00 0.00 0.00 73 1012.4
20260830193918 82 219 5.0 12.0 0.00 0.00 0.00 73 1012.4
20260830193419 82 255 5.0 11.0 0.00 0.00 0.00 72 1012.4
20260830192921 82 227 4.0 12.0 0.00 0.00 0.00 72 1012.3
20260830192421 82 230 4.0 12.0 0.00 0.00 0.00 72 1012.4
20260830191924 82 0 4.0 9.0 0.00 0.00 0.00 71 1012.5
20260830191419 82 0 4.0 9.0 0.00 0.00 0.00 71 1012.5
20260830190917 82 277 4.0 9.0 0.00 0.00 0.00 72 1012.6
20260830190427 82 205 4.0 10.0 0.00 0.00 0.00 70 1012.6
20260830185918 82 192 4.0 10.0 0.00 0.00 0.00 69 1012.7
20260830185415 83 0 4.0 11.0 0.00 0.00 0.00 67 1012.7
20260830184928 83 232 4.0 11.0 0.00 0.00 0.00 67 1012.7
20260830184417 83 225 4.0 10.0 0.00 0.00 0.00 68 1012.6
20260830183916 83 217 4.0 10.0 0.00 0.00 0.00 68 1012.6
20260830183417 83 190 5.0 10.0 0.00 0.00 0.00 67 1012.6
20260830182919 83 0 5.0 11.0 0.00 0.00 0.00 66 1012.5
20260830182406 83 233 4.0 11.0 0.00 0.00 0.00 66 1012.5
20260830181918 83 211 3.0 8.0 0.00 0.00 0.00 67 1012.6
20260830181403 83 200 4.0 8.0 0.00 0.00 0.00 67 1012.6
20260830180913 83 275 3.0 8.0 0.00 0.00 0.00 68 1012.5
20260830180402 83 215 3.0 6.0 0.00 0.00 0.00 68 1012.5
20260830175910 83 263 3.0 8.0 0.00 0.00 0.00 69 1012.6
20260830175401 82 0 3.0 8.0 0.00 0.00 0.00 70 1012.7
20260830174917 83 268 3.0 9.0 0.00 0.00 0.00 69 1012.6
20260830174403 83 0 3.0 9.0 0.00 0.00 0.00 69 1012.6
20260830173913 84 265 3.0 7.0 0.00 0.00 0.00 68 1012.6
20260830173826 84 187 2.0 6.0 0.00 0.00 0.00 66 1012.7
20260830172908 84 101 2.0 5.0 0.00 0.00 0.00 63 1012.6
20260830172404 83 172 1.0 5.0 0.00 0.00 0.00 65 1012.6
20260830171903 83 234 2.0 4.0 0.00 0.00 0.00 64 1012.5
20260830171402 83 196 2.0 4.0 0.00 0.00 0.00 65 1012.5
20260830170902 83 74 1.0 4.0 0.00 0.00 0.00 67 1012.4
20260830170418 82 184 1.0 4.0 0.00 0.00 0.00 68 1012.4
20260830165913 82 43 2.0 5.0 0.00 0.00 0.00 68 1012.3
20260830165415 82 66 2.0 5.0 0.00 0.00 0.00 68 1012.3
20260830165259 82 180 2.0 4.0 0.00 0.00 0.00 68 1012.4
20260830164416 82 109 1.0 3.0 0.00 0.00 0.00 68 1012.3
20260830163900 82 177 1.0 3.0 0.00 0.00 0.00 69 1012.3
20260830163429 82 126 1.0 3.0 0.00 0.00 0.00 70 1012.4
20260830162909 81 105 1.0 3.0 0.00 0.00 0.00 70 1012.3
20260830162412 80 106 1.0 3.0 0.00 0.00 0.00 71 1012.4
20260830161918 80 67 1.0 3.0 0.00 0.00 0.00 72 1012.4
20260830161407 80 78 1.0 4.0 0.00 0.00 0.00 73 1012.4
20260830161254 79 192 1.0 6.0 0.00 0.00 0.00 74 1012.4
20260830160405 79 112 1.0 6.0 0.00 0.00 0.00 75 1012.5
20260830155907 79 71 1.0 5.0 0.00 0.00 0.00 75 1012.4
20260830155403 78 329 1.0 5.0 0.00 0.00 0.00 76 1012.4
20260830154901 78 15 2.0 6.0 0.00 0.00 0.00 77 1012.4
20260830154456 77 104 2.0 6.0 0.00 0.00 0.00 79 1012.4
20260830154417 78 117 2.0 6.0 0.00 0.00 0.00 77 1012.4
20260830154033 77 69 2.0 3.0 0.00 0.00 0.00 79 1012.3
20260830153948 78 53 2.0 5.0 0.00 0.00 0.00 77 1012.4
20260830152406 76 101 2.0 6.0 0.00 0.00 0.00 79 1012.3
20260830151903 76 101 2.0 4.0 0.00 0.00 0.00 81 1012.4
20260830151403 76 65 2.0 4.0 0.00 0.00 0.00 82 1012.4
20260830150852 75 82 2.0 4.0 0.00 0.00 0.00 83 1012.4
20260830150349 74 105 2.0 4.0 0.00 0.00 0.00 84 1012.6
20260830150343 73 52 0.0 3.0 0.00 0.00 0.00 89 1012.5
20260830150338 74 105 1.0 4.0 0.00 0.00 0.00 86 1012.6
20260830145451 73 72 1.0 3.0 0.00 0.00 0.00 88 1012.5
20260830144343 72 219 0.0 0.0 0.00 0.00 0.00 91 1012.4
20260830143858 71 219 0.0 0.0 0.00 0.00 0.00 91 1012.4
20260830143345 71 219 0.0 0.0 0.00 0.00 0.00 92 1012.4